Погода в Нью-Глазго

Канада     45°35′20″N   62°38′39″W
темп.,
°C
ветер,
м/с
пор.,
м/с
влажн.,
%
обл.,
%
осадки,
мм/ч
давл.,
гПа
погр.,
м
24 июля, сб
сб2400:00+12ссз11965 0.2 101711
03:00+11сз1297100 0.2 101730
06:00+11ссз259889 0.0 1017128
09:00+15ссз368546 0.0 1019823
12:00+20ссз465812 0.0 10191356
15:00+21с445330 0.3 10181588
18:00+20ссв33606 0.2 1018909
21:00+13юв11905 0.2 101911
25 июля, вс
вс2500:00+12ю22950 0.0 101831
03:00+12ююз22969 0.0 101845
06:00+11ююз22950 0.0 101839
09:00+18зюз246911 0.0 1018417
12:00+24юз22480 0.0 10161726
15:00+25зюз2340100 0.0 10152518
18:00+20ююз3763100 0.0 1015440
21:00+17ююз397061 0.0 1016372
26 июля, пн
пн2600:00+13ююз389399 0.0 1016183
03:00+12ю389733 0.0 1016169
06:00+12ю399840 0.0 1015185
09:00+18ююз4107599 0.0 1015696
12:00+18ю598035 0.0 1013795
15:00+18ююв51191100 0.3 1012655
18:00+18ю41297100 1.2 1011622
21:00+18ююз3898100 2.6 1011381
27 июля, вт
вт2700:00+18ююз259994 0.1 1011242
03:00+17ююз3697100 0.1 1010302
06:00+17юз389858 0.1 1011338
09:00+20ююз369128 0.1 1011311
12:00+25зюз46615 0.0 1011849
15:00+28зюз474614 0.4 10102065
18:00+26ююз46575 0.1 1010968
21:00+18ююз249328 0.3 101174
28 июля, ср
ср2800:00+16зюз2685100 0.0 1011104
03:00+17зюз1285100 0.0 101164
06:00+16юз2596100 0.0 1011171
09:00+19сз3474100 0.0 1012582
12:00+23ссз3456100 0.0 10121406
15:00+19ссз4571100 0.1 1012582
18:00+18с458077 0.1 1013639
21:00+14с229616 0.1 101440